Weather History for Cecil Field, FL

Change the Weather History Date:

Thursday, July 12, 2012

  Actual Average (KJAX) Record (KJAX)
Temperature  
Mean Temperature 77 °F 82 °F  
Max Temperature 86 °F 92 °F 102 °F (1879)
Min Temperature 68 °F 73 °F 66 °F (1890)
Degree Days  
Heating Degree Days 0 0  
Month to date heating degree days 0  
Since 1 June heating degree days 0  
Since 1 July heating degree days 0  
Cooling Degree Days 12 17  
Month to date cooling degree days 204  
Year to date cooling degree days 1137  
Since 1 June cooling degree days 653  
Growing Degree Days 27 (Base 50)    
Moisture  
Dew Point 72 °F    
Average Humidity 92    
Maximum Humidity 100    
Minimum Humidity 62    
Precipitation  
Precipitation 0.00 in 0.20 in 3.97 in (1991)
Month to date precipitation 2.53  
Year to date precipitation 24.54  
Snow  
Snow 0.00 in 0.00 in 0.00 in (2002)
Month to date snowfall 0.0  
Since 1 June snowfall 0.0  
Since 1 July snowfall 0.0  
Snow Depth -    
Sea Level Pressure  
Sea Level Pressure 30.04 in    
Wind  
Wind Speed 1 mph (East)    
Max Wind Speed 12 mph    
Max Gust Speed -    
Visibility 9 miles    
Events Rain    
T = Trace of Precipitation, MM = Missing Value Source: NWS Daily Summary

Daily Weather History Graph

Daily Weather History Graph

Search for Another Location

Airport:

Trip Planner

Search our weather history database for the weather conditions in past years. The results will help you decide how hot, cold, wet, or windy it might be!

Date:

Astronomy

Jul. 12, 2012 Rise Set
Actual Time 6:34 AM EDT 8:31 PM EDT
Civil Twilight 6:07 AM EDT 8:58 PM EDT
Nautical Twilight 5:34 AM EDT 9:31 PM EDT
Astronomical Twilight 5:00 AM EDT 10:05 PM EDT
Moon 1:29 AM EDT (7/12) 3:09 PM EDT (7/12)
Length of Visible Light 14h 50m
Length of Day
13h 56m
Waning Crescent, 35% of the Moon is Illuminated
Jul 12
Waning Crescent
Jul 19
New
Jul 26
First Quarter
Aug 1
Full
Aug 9
Last Quarter

Hourly Weather History & Observations

Time (EDT) Temp. Heat Index Dew Point Humidity Pressure Visibility Wind Dir Wind Speed Gust Speed Precip Events Conditions
12:55 AM 71.6 °F - 71.6 °F 100% 30.07 in 10.0 mi Calm Calm - N/A   Clear
1:15 AM 71.6 °F - 71.6 °F 100% 30.06 in 10.0 mi Calm Calm - N/A   Clear
1:35 AM 71.6 °F - 71.6 °F 100% 30.06 in 10.0 mi Calm Calm - N/A   Clear
1:55 AM 71.6 °F - 71.6 °F 100% 30.05 in 10.0 mi Calm Calm - N/A   Clear
2:15 AM 69.8 °F - 69.8 °F 100% 30.05 in 10.0 mi Calm Calm - N/A   Clear
2:35 AM 69.8 °F - 69.8 °F 100% 30.05 in 10.0 mi Calm Calm - N/A   Clear
2:55 AM 69.8 °F - 69.8 °F 100% 30.05 in 10.0 mi Calm Calm - N/A   Clear
3:15 AM 69.8 °F - 69.8 °F 100% 30.04 in 9.0 mi Calm Calm - N/A   Clear
3:35 AM 69.8 °F - 69.8 °F 100% 30.04 in 9.0 mi Calm Calm - N/A   Clear
3:55 AM 69.8 °F - 69.8 °F 100% 30.04 in 9.0 mi Calm Calm - N/A   Clear
4:15 AM 69.8 °F - 69.8 °F 100% 30.03 in 9.0 mi Calm Calm - N/A   Clear
4:35 AM 69.8 °F - 69.8 °F 100% 30.03 in 9.0 mi Calm Calm - N/A   Clear
4:55 AM 68.0 °F - 68.0 °F 100% 30.03 in 9.0 mi Calm Calm - N/A   Clear
5:15 AM 68.0 °F - 68.0 °F 100% 30.03 in 7.0 mi Calm Calm - N/A   Clear
5:35 AM 68.0 °F - 68.0 °F 100% 30.03 in 5.0 mi Calm Calm - N/A   Clear
5:55 AM 68.0 °F - 68.0 °F 100% 30.03 in 7.0 mi Calm Calm - N/A   Clear
6:15 AM 68.0 °F - 68.0 °F 100% 30.04 in 7.0 mi Calm Calm - N/A   Clear
6:50 AM 68.0 °F - 68.0 °F 100% 30.04 in 7.0 mi Calm Calm - N/A   Clear
7:50 AM 75.2 °F - 73.4 °F 94% 30.04 in 7.0 mi Calm Calm - N/A   Clear
8:50 AM 78.8 °F - 75.2 °F 89% 30.05 in 7.0 mi Calm Calm - N/A   Clear
9:50 AM 82.4 °F 88.2 °F 73.4 °F 74% 30.05 in 9.0 mi East 8.1 mph - N/A   Scattered Clouds
11:50 AM 86.0 °F 91.8 °F 71.6 °F 62% 30.05 in 10.0 mi ESE 6.9 mph - N/A   Mostly Cloudy
12:50 PM 84.2 °F 90.9 °F 73.4 °F 70% 30.05 in 10.0 mi ESE 11.5 mph - N/A   Mostly Cloudy
1:50 PM 86.0 °F 95.1 °F 75.2 °F 70% 30.04 in 10.0 mi North 4.6 mph - N/A   Mostly Cloudy
2:50 PM 77.0 °F - 75.2 °F 94% 30.03 in 6.0 mi South 10.4 mph - N/A Rain Light Rain
3:50 PM 80.6 °F 87.1 °F 77.0 °F 89% 30.00 in 10.0 mi Calm Calm - N/A   Mostly Cloudy
4:50 PM 86.0 °F 95.1 °F 75.2 °F 70% 29.99 in 10.0 mi ENE 6.9 mph - N/A   Scattered Clouds
5:50 PM 84.2 °F 90.9 °F 73.4 °F 70% 29.99 in 10.0 mi East 6.9 mph - N/A   Scattered Clouds
6:50 PM 84.2 °F 90.9 °F 73.4 °F 70% 30.00 in 10.0 mi ENE 6.9 mph - N/A   Scattered Clouds
7:50 PM 82.4 °F 88.2 °F 73.4 °F 74% 30.02 in 10.0 mi East 5.8 mph - N/A   Partly Cloudy
8:55 PM 80.6 °F 85.4 °F 73.4 °F 79% 30.03 in 10.0 mi Calm Calm - N/A   Clear
9:15 PM 78.8 °F - 75.2 °F 89% 30.03 in 10.0 mi Calm Calm - N/A   Clear
9:55 PM 77.0 °F - 75.2 °F 94% 30.04 in 10.0 mi Calm Calm - N/A   Clear
10:15 PM 77.0 °F - 75.2 °F 94% 30.04 in 10.0 mi Calm Calm - N/A   Clear
10:35 PM 77.0 °F - 75.2 °F 94% 30.05 in 10.0 mi Calm Calm - N/A   Clear
10:55 PM 77.0 °F - 75.2 °F 94% 30.04 in 10.0 mi Calm Calm - N/A   Clear
11:15 PM 75.2 °F - 75.2 °F 100% 30.05 in 9.0 mi Calm Calm - N/A   Clear
11:35 PM 73.4 °F - 73.4 °F 100% 30.05 in 9.0 mi Calm Calm - N/A   Clear
11:55 PM 73.4 °F - 73.4 °F 100% 30.06 in 8.0 mi Calm Calm - N/A   Clear